This is the latest recevied weather packets stored in our database for station/object OK1VCF-8. If no packets are shown the sender has not sent any weather packets the latest 10 day(s).
| Time | Temp. | Humidity | Pressure | Rain* | Wind** | Luminosity | Snow |
|---|---|---|---|---|---|---|---|
| 1777834511 | 19.44° C | 40% | 1013.2 hPa | - | - | - | - |
| 1777834075 | 20° C | 38% | 1013.2 hPa | - | - | - | - |
| 1777833637 | 20° C | 37% | 1013.2 hPa | - | - | - | - |
| 1777833199 | 20° C | 36% | 1013.1 hPa | - | - | - | - |
| 1777832760 | 20° C | 36% | 1013 hPa | - | - | - | - |
| 1777832320 | 20° C | 34% | 1012.9 hPa | - | - | - | - |
| 1777831882 | 21.11° C | 34% | 1012.9 hPa | - | - | - | - |
| 1777831441 | 21.11° C | 33% | 1012.8 hPa | - | - | - | - |
| 1777831001 | 21.11° C | 32% | 1012.7 hPa | - | - | - | - |
| 1777829539 | 23.33° C | 28% | 1012.6 hPa | - | - | - | - |
| 1777829101 | 23.33° C | 27% | 1012.6 hPa | - | - | - | - |
| 1777828662 | 24.44° C | 26% | 1012.6 hPa | - | - | - | - |
| 1777828224 | 24.44° C | 26% | 1012.6 hPa | - | - | - | - |
| 1777827784 | 25.56° C | 25% | 1012.7 hPa | - | - | - | - |
| 1777827345 | 25.56° C | 24% | 1012.6 hPa | - | - | - | - |
| 1777826906 | 27.22° C | 22% | 1012.6 hPa | - | - | - | - |
| 1777826467 | 31.11° C | 18% | 1012.8 hPa | - | - | - | - |
| 1777826029 | 32.22° C | 18% | 1012.7 hPa | - | - | - | - |
| 1777825590 | 31.11° C | 19% | 1012.8 hPa | - | - | - | - |
| 1777825149 | 32.22° C | 18% | 1012.8 hPa | - | - | - | - |
| 1777824710 | 34.44° C | 16% | 1012.7 hPa | - | - | - | - |
| 1777824271 | 35° C | 16% | 1012.9 hPa | - | - | - | - |
| 1777823831 | 35.56° C | 15% | 1012.8 hPa | - | - | - | - |
| 1777823226 | 34.44° C | 16% | 1012.9 hPa | - | - | - | - |
| 1777822786 | 34.44° C | 16% | 1013 hPa | - | - | - | - |
* Rain since midnight (hover to see other rain measurements)
** Current wind speed in m/s (hover to see current wind gust speed)